Dewpoint
73 75 76 76 77 77 75 77 76 77 78 79 79 79 78 78 78 78 77 76 76 76 75 75 74 73 73 75 73 72 72 71 69 70 72 73 73 71 70 73 73 73 73
73 75 75 76 77 75 76 76 77 76 77 78 79 78 78 78 78 77 76 75 75 75 74 75 74 75 74 74 74 73 72 72 71 70 72 72 72 72 72 72 71 73 71
72 72 74 75 75 75 75 75 76 77 77 76 77 78 78 77 78 78 77 77 75 75 75 74 74 74 74 74 74 73 72 73 73 71 70 72 73 73 72 72 72 72 72
68 68 71 73 73 74 75 76 75 77 77 77 77 77 77 78 77 77 77 76 76 75 75 75 75 74 74 75 74 74 74 73 73 71 70 69 71 72 72 71 72 72 72
75 69 71 73 72 74 76 77 77 77 77 77 77 78 78 76 75 77 77 76 76 75 75 75 75 74 73 73 73 74 74 73 71 71 70 69 72 71 71 72 71 72 72
76 77 75 77 76 78 78 78 79 78 79 78 77 77 77 75 71 72 76 76 76 75 75 75 75 73 72 71 70 70 71 74 73 71 69 68 71 71 71 72 71 70 69
78 77 80 80 78 79 80 80 79 79 79 79 78 78 78 77 68 69 72 75 75 75 75 74 74 70 72 73 70 69 69 69 69 72 69 69 70 72 73 72 71 71 70
77 80 79 81 79 79 80 80 80 79 79 79 78 78 79 77 67 68 70 75 75 75 75 73 73 74 74 74 74 73 72 73 71 69 69 70 71 73 74 73 73 72 73
77 77 79 80 80 79 79 80 80 80 79 79 78 79 79 78 66 67 70 75 74 75 75 75 74 74 70 67 73 72 73 73 67 67 69 69 68 67 68 70 68 69 68
74 79 80 80 80 80 80 80 80 80 79 78 77 78 74 78 64 64 69 73 72 72 75 75 68 71 66 64 71 73 72 72 72 72 71 70 67 68 66 70 69 69 70
77 79 80 80 80 80 81 81 80 79 78 78 77 78 78 76 72 62 63 74 72 72 72 74 76 64 62 61 63 73 71 72 71 72 72 71 70 71 70 69 70 70 69
78 79 80 80 80 80 81 81 80 79 79 77 79 78 77 79 71 62 62 63 70 74 74 76 73 62 59 59 61 64 64 66 73 70 68 66 69 70 69 72 71 72 72
77 79 79 79 79 79 80 79 78 73 72 74 75 74 74 76 77 64 61 61 62 67 72 67 65 61 62 61 59 61 61 69 70 71 70 70 71 70 73 72 72 72 71
75 77 79 79 79 78 72 69 67 68 68 68 65 63 64 70 73 75 71 68 63 67 69 70 69 68 63 66 67 64 68 70 70 71 71 71 71 71 70 71 70 70 70
73 77 77 78 73 67 67 66 66 67 65 64 63 62 62 66 68 60 66 74 72 66 69 74 72 71 71 72 72 72 73 73 71 71 70 70 70 70 70 70 69 68 68
74 75 76 73 67 65 64 62 53 52 51 50 51 61 60 56 54 53 52 53 56 56 69 70 70 71 70 70 71 71 71 70 71 71 71 70 69 69 68 68 68 68 67
73 74 68 67 68 67 66 64 60 58 52 49 49 51 55 54 50 50 50 53 53 57 69 68 67 67 67 67 67 67 67 69 70 70 69 69 69 68 68 68 67 66 66
73 63 69 69 69 67 66 66 65 64 63 63 54 55 53 49 49 49 48 52 64 63 67 65 65 66 66 66 66 65 65 64 64 66 67 68 68 67 66 66 66 66 65
70 70 70 69 69 67 68 67 67 66 64 62 63 56 52 47 47 48 50 64 62 62 62 62 63 62 63 63 65 66 66 66 66 67 66 65 64 63 64 64 64 59 59
68 65 67 69 68 69 68 66 67 66 62 60 59 59 61 58 61 64 64 64 61 60 61 61 62 62 62 62 62 62 62 60 61 61 62 63 63 63 61 61 62 63 63
68 68 65 67 67 68 68 68 67 64 62 61 60 60 56 62 62 63 60 60 60 61 62 62 64 64 63 62 61 59 57 57 58 58 59 59 59 59 61 60 60 61 62
68 67 65 66 68 68 67 67 64 62 61 60 60 59 52 60 60 61 61 61 61 62 62 63 59 58 57 56 53 51 50 48 51 52 52 53 55 56 56 56 58 60 61
69 69 68 68 66 63 64 64 62 59 58 59 59 58 59 58 58 58 59 60 60 59 59 58 56 54 53 50 46 40 37 37 41 41 41 45 49 53 53 53 52 51 53
67 66 65 63 60 60 60 59 59 56 59 59 57 56 56 56 56 58 58 58 58 57 57 56 53 48 45 42 39 37 36 36 39 36 37 37 39 42 48 51 50 51 51
60 60 61 61 61 60 59 60 60 59 56 56 56 56 57 55 54 53 53 57 56 56 54 53 51 47 41 39 39 37 33 32 36 34 35 37 41 44 41 41 41 41 41
60 60 60 61 60 60 59 57 56 55 54 53 52 51 51 50 49 47 46 46 46 46 45 44 43 46 41 36 36 34 30 31 33 31 34 38 39 40 40 40 40 39 38
Lifted_Index
-9 -9 -9 -9 -9 -8 -8 -8 -8 -8 -9 -9 -9 -9 -9 -9 -9 -8 -8 -7 -7 -7 -7 -6 -6 -6 -5 -5 -5 -4 -3 -3 -2 -2 -2 -2 -2 -2 -2 -2 -2 -3 -3
-9 -9 -8 -9 -9 -8 -8 -8 -9 -9 -9 -9 -9 -9 -9 -9 -9 -9 -8 -8 -7 -7 -7 -6 -6 -6 -6 -6 -5 -4 -3 -3 -3 -3 -3 -3 -2 -2 -2 -2 -2 -3 -3
-8 -8 -8 -8 -8 -8 -8 -8 -9 -9 -9 -9 -10 -10 -10 -10 -9 -9 -9 -8 -8 -7 -7 -7 -6 -6 -6 -6 -5 -5 -5 -4 -4 -4 -3 -3 -3 -2 -2 -2 -2 -3 -3
-8 -8 -8 -8 -8 -8 -8 -8 -9 -9 -9 -9 -9 -10 -10 -10 -9 -9 -9 -8 -8 -7 -7 -7 -7 -6 -6 -6 -6 -6 -5 -5 -5 -4 -4 -3 -3 -3 -2 -2 -3 -3 -3
-8 -8 -8 -8 -8 -8 -9 -9 -9 -9 -9 -9 -9 -10 -10 -10 -9 -9 -9 -8 -8 -7 -7 -8 -7 -7 -6 -6 -6 -6 -6 -5 -5 -4 -4 -3 -3 -3 -3 -3 -3 -3 -3
-10 -10 -9 -9 -9 -9 -10 -10 -10 -9 -9 -9 -9 -10 -10 -9 -9 -8 -8 -8 -7 -7 -7 -7 -7 -7 -6 -6 -6 -6 -5 -5 -5 -4 -3 -3 -3 -3 -3 -3 -3 -3 -3
-11 -11 -11 -11 -11 -11 -11 -11 -11 -10 -10 -10 -10 -10 -10 -9 -8 -8 -8 -7 -7 -7 -7 -7 -7 -6 -6 -6 -6 -5 -5 -5 -4 -4 -3 -3 -3 -4 -4 -4 -3 -3 -3
-12 -12 -12 -13 -13 -12 -12 -12 -12 -11 -11 -11 -10 -10 -10 -10 -8 -8 -7 -7 -7 -7 -6 -6 -6 -6 -6 -6 -6 -6 -6 -5 -5 -4 -3 -3 -3 -3 -3 -3 -3 -3 -3
-11 -12 -13 -13 -13 -13 -13 -13 -13 -12 -12 -11 -11 -10 -10 -9 -8 -7 -7 -7 -6 -6 -6 -6 -6 -6 -6 -6 -6 -6 -6 -6 -5 -4 -4 -3 -3 -3 -2 -2 -2 -2 -2
-10 -12 -13 -13 -13 -14 -14 -14 -13 -13 -12 -11 -11 -10 -10 -9 -8 -7 -7 -6 -6 -6 -6 -6 -6 -6 -5 -5 -5 -5 -5 -5 -5 -4 -4 -3 -3 -2 -2 -1 -1 -2 -2
-10 -12 -13 -13 -13 -14 -14 -14 -14 -13 -12 -11 -11 -10 -9 -9 -8 -7 -6 -6 -6 -6 -6 -6 -6 -5 -5 -4 -4 -4 -4 -4 -4 -3 -3 -3 -3 -3 -2 -2 -2 -2 -2
-11 -12 -12 -13 -13 -13 -13 -13 -13 -12 -11 -11 -10 -10 -9 -9 -8 -7 -6 -6 -6 -6 -5 -5 -5 -4 -4 -4 -3 -3 -3 -3 -3 -3 -3 -2 -3 -3 -3 -3 -3 -3 -3
-11 -12 -12 -12 -12 -12 -12 -12 -11 -10 -10 -9 -9 -8 -8 -8 -8 -8 -7 -7 -6 -5 -5 -5 -5 -4 -4 -3 -3 -3 -2 -2 -3 -3 -3 -3 -3 -3 -3 -3 -3 -3 -3
-10 -11 -12 -12 -11 -11 -11 -10 -9 -7 -7 -7 -7 -6 -5 -6 -7 -7 -7 -7 -6 -6 -5 -5 -4 -4 -4 -3 -3 -3 -2 -2 -3 -3 -3 -3 -3 -3 -3 -3 -3 -3 -3
-10 -11 -11 -11 -10 -10 -10 -9 -7 -5 -5 -5 -4 -3 -2 -4 -5 -7 -7 -7 -6 -5 -5 -5 -4 -4 -4 -3 -3 -3 -3 -3 -3 -3 -3 -3 -3 -2 -2 -2 -3 -3 -2
-9 -9 -10 -10 -9 -9 -9 -8 -5 -3 -3 -3 -3 -2 -2 -3 -4 -5 -6 -5 -4 -4 -4 -4 -4 -3 -3 -3 -2 -2 -2 -2 -2 -2 -3 -2 -2 -2 -2 -2 -2 -2 -2
-8 -8 -9 -9 -9 -9 -8 -6 -4 -2 -1 -2 -3 -3 -3 -3 -3 -3 -3 -3 -3 -2 -3 -3 -2 -2 -2 -2 -1 -1 -1 -1 -1 -1 -2 -2 -1 -1 -1 -1 -1 -1 -1
-7 -7 -8 -9 -9 -8 -6 -4 -2 -1 -1 -1 -2 -3 -3 -2 -1 -1 -2 -2 -2 -2 -2 -1 -1 -0 -0 -0 -0 -0 0 0 -0 -0 -0 -0 -0 -0 -0 -0 -0 -0 -0
-7 -7 -8 -8 -8 -6 -4 -3 -2 -2 -2 -2 -2 -2 -1 -0 -0 -1 -2 -2 -2 -1 -1 0 1 1 1 1 1 1 1 1 1 1 1 1 1 1 1 1 0 0 0
-6 -6 -7 -7 -6 -5 -4 -3 -3 -2 -2 -2 -2 -1 0 0 -0 -1 -1 -1 -1 -0 1 1 2 2 2 2 2 2 3 3 3 3 3 2 2 2 2 2 1 1 1
-5 -5 -6 -5 -5 -5 -5 -4 -4 -3 -2 -2 -1 -0 0 -0 -1 -1 -0 -0 0 1 1 2 2 2 2 3 4 4 4 4 4 5 4 4 4 3 3 3 2 2 1
-5 -5 -5 -5 -5 -5 -5 -4 -3 -2 -2 -1 -0 0 -0 -0 -0 -0 0 0 1 1 2 3 3 4 4 5 6 6 6 6 6 6 6 6 5 5 4 4 3 3 3
-5 -5 -5 -5 -5 -4 -4 -3 -2 -2 -1 -0 0 1 0 0 1 1 1 1 2 3 3 4 5 6 6 7 7 8 8 8 8 8 8 8 7 7 6 5 5 4 4
-4 -4 -4 -4 -3 -3 -2 -2 -1 -1 -0 1 1 1 1 2 2 2 2 3 3 4 5 6 7 7 8 9 10 11 11 12 12 12 11 11 10 10 8 7 7 7 6
-3 -3 -3 -3 -3 -2 -1 -1 -0 0 1 1 2 2 2 3 3 4 4 5 5 6 7 8 9 10 10 11 13 14 16 16 16 16 16 15 14 12 11 10 10 9 9
-3 -3 -3 -3 -2 -2 -1 -0 0 1 1 2 3 3 3 4 5 6 6 7 7 8 8 10 11 11 12 13 15 17 18 18 18 18 18 17 15 13 13 12 12 11 11